Location: Bottenau
(48.5138°N, 8.0462°E)
Time: 05:17:21
(UTC+00:00)

ALOS 2 - Pass Details

Date: 18 April 2021
Orbit: 630 x 632 km, 97.9° (Epoch: 09 May)

Event Time Altitude Azimuth Distance (km) Brightness Sun altitude
Exits shadow 22:50:00 42° 350° (N) 908 3.7 -29.8°
Drops below altitude 10° 22:52:56 10° 347° (NNW) 2,024 6.1 -29.8°
Sets 22:55:09 0° 347° (NNW) 2,936 7.2 -29.9°
